This demonstration page uses our WeatherBlox Daily Observations layout. Learn more.

Left ArrowRight Arrow

Hourly Observations for March 5, 2016

Temp ( °F °C ) Dew Point ( °F °C ) Humidity (%) Winds ( mph kmh ) Pressure ( in mb ) Visibility ( mi km ) Precip ( " mm )
12:54 am 00:54 Clear 28 -2.2 24 -4.4 85 85 N 6 9 30.16 1021 9 14 0.00 0.00
1:54 am 01:54 Clear 27 -2.8 24 -4.4 89 89 Calm 30.18 1022 10 16 0.00 0.00
2:54 am 02:54 Clear 27 -2.8 24 -4.4 89 89 N 3 6 30.19 1022 10 16 0.00 0.00
3:54 am 03:54 Clear 30 -1.1 25 -3.9 82 82 Calm 30.19 1022 10 16 0.00 0.00
4:54 am 04:54 Clear 27 -2.8 23 -5 85 85 Calm 30.20 1023 10 16 0.00 0.00
5:54 am 05:54 Clear 25 -3.9 22 -5.6 88 88 NE 3 6 30.22 1023 10 16 0.00 0.00
6:54 am 06:54 Sunny 27 -2.8 23 -5 85 85 Calm 30.23 1024 10 16 0.00 0.00
7:54 am 07:54 Sunny 33 0.6 28 -2.2 82 82 Calm 30.24 1024 10 16 0.00 0.00
8:54 am 08:54 Sunny 41 5 31 -0.6 67 67 Calm 30.26 1025 10 16 0.00 0.00
9:54 am 09:54 Sunny 46 7.8 31 -0.6 56 56 NE 6 9 30.27 1025 10 16 0.00 0.00
10:54 am 10:54 Sunny 50 10 31 -0.6 48 48 E 6 9 30.27 1025 10 16 0.00 0.00
11:54 am 11:54 Sunny 54 12.2 32 0 43 43 VRB 6 9 30.26 1025 10 16 0.00 0.00
12:54 pm 12:54 Sunny 58 14.4 31 -0.6 36 36 VRB 3 6 30.24 1024 10 16 0.00 0.00
1:54 pm 13:54 Sunny 61 16.1 31 -0.6 32 32 VRB 5 7 30.20 1023 10 16 0.00 0.00
2:54 pm 14:54 Sunny 65 18.3 32 0 29 29 ESE 8 13 30.16 1021 10 16 0.00 0.00
3:54 pm 15:54 Sunny 66 18.9 32 0 28 28 SE 13 20 30.13 1020 10 16 0.00 0.00
4:54 pm 16:54 Sunny 65 18.3 33 0.6 31 31 ESE 14 22 30.11 1020 10 16 0.00 0.00
5:54 pm 17:54 Sunny 61 16.1 32 0 34 34 SE 15 24 30.10 1019 10 16 0.00 0.00
6:54 pm 18:54 Clear 57 13.9 32 0 39 39 SSE 14 22 30.11 1020 10 16 0.00 0.00
7:54 pm 19:54 Clear 54 12.2 31 -0.6 42 42 SSE 12 19 30.09 1019 10 16 0.00 0.00
8:54 pm 20:54 Clear 48 8.9 30 -1.1 50 50 SSE 10 17 30.08 1019 10 16 0.00 0.00
9:54 pm 21:54 Clear 48 8.9 29 -1.7 48 48 SSE 10 17 30.07 1018 9 14 0.00 0.00
10:54 pm 22:54 Clear 50 10 28 -2.2 43 43 SSE 12 19 30.05 1018 10 16 0.00 0.00
11:54 pm 23:54 Clear 46 7.8 29 -1.7 51 51 S 9 15 30.05 1018 10 16 0.00 0.00

Powered by AerisWeather